Location: Newark
(52.4787°S, 179.0532°W)
Time: 19:12:29
(UTC+00:00)

Transit 2A Rocket - Pass Details

Date: 21 November 2019
Orbit: 594 x 909 km, 66.7° (Epoch: 14 December)

Event Time Altitude Azimuth Distance (km) Brightness Sun altitude
Rises 23:42:47 0° 272° (W) 3,449 8.4 57.5°
Reaches altitude 10° 23:45:37 10° 260° (W) 2,553 7.8 57.5°
Maximum altitude 23:50:40 28° 202° (SSW) 1,666 6.8 57.5°
Drops below altitude 10° 23:55:53 10° 144° (SE) 2,629 7.6 57.4°
Sets 23:58:50 0° 132° (SE) 3,569 8.2 57.4°
